Tracking 19800 objects as of 23-Jul-2019
HD Live streaming from Space Station
objects crossing your sky now

AX-1


AX-1 is no longer on orbit


NORAD ID: 41625
Int'l Code: 2016-042B
Perigee: N/A
Apogee: N/A
Inclination: N/A
Period: N/A
Semi major axis: N/A
RCS: N/A
Launch date: June 25, 2016
Source: People's Republic of China (PRC)
Launch site: Wenchang Satellite Launch Center (WSC)
Decay date: 2016-09-29
aabbcc
Your satellite tracking list
Your tracking list is empty




NASA's NSSDC Master Catalog

Two Line Element Set (TLE):
1 41625U 16042B   16273.38664348  .06178330  74323-5  68886-3 0  9993
2 41625  40.7975 154.0386 0012594 238.7947 122.0988 16.35775439 15286
Source of the keplerian elements: AFSPC